Location: Ajax Mine
(37.8003°N, 107.6753°W)
Time: 17:12:15
(UTC+00:00)

Daily predictions for brighter satellites

Satellite Brightness Start Highest point End
(mag) Time Altitude Azimuth Time Altitude Azimuth Time Altitude Azimuth
STARLINK-34 4.4 12:10:07 49° ESE 12:10:07 49° ESE 12:13:43 10° ENE
Cosmos 2344 3.4 12:08:10 48° WSW 12:10:18 66° NW 12:18:10 10° NNE
Cosmos 1538 Rocket 4.1 12:05:56 10° S 12:11:16 75° ESE 12:16:35 10° NNE
STARLINK-24 4.2 12:12:06 51° ESE 12:12:06 51° ESE 12:15:48 10° ENE
Cosmos 2082 3.7 12:10:42 43° NNW 12:12:38 81° ENE 12:18:21 10° SSE
STARLINK-81 4.3 12:12:53 48° SE 12:12:57 48° SE 12:16:50 10° ENE
STARLINK-54 4.1 12:14:52 56° SE 12:14:52 56° SE 12:18:43 10° NE
STARLINK-77 4.1 12:16:04 52° SE 12:16:14 52° SE 12:20:09 10° ENE
CZ-3A R/B 4.4 12:11:40 24° SW 12:17:00 45° SSE 12:55:54 10° ESE
STARLINK-25 4.1 12:17:40 53° SSE 12:17:53 54° SE 12:21:49 10° ENE
STARLINK-71 3.8 12:19:42 64° SE 12:19:44 64° SE 12:23:43 10° NE
STARLINK-79 3.9 12:20:50 56° SSE 12:21:10 59° SE 12:25:08 10° NE
STARLINK-78 3.9 12:22:29 58° SSE 12:22:52 62° SE 12:26:51 10° NE
BREEZE M DEB (TANK) 4.4 12:21:38 37° W 12:23:02 39° WSW 12:26:54 10° SSE
Cosmos 2297 Rocket 2.8 12:25:29 38° SW 12:25:29 38° SW 12:29:45 10° S
STARLINK-33 3.7 12:25:06 61° ENE 12:25:06 61° ENE 12:28:12 10° NE
STARLINK-57 3.7 12:24:17 64° SSE 12:24:35 68° SE 12:28:36 10° NE
STARLINK-49 3.8 12:25:38 59° S 12:26:07 66° SE 12:30:07 10° NE
ALOS 2.3 12:21:53 10° NNE 12:26:36 79° ESE 12:31:15 10° S
Cosmos 1602 Rocket 3.3 12:27:07 74° WSW 12:27:07 74° WSW 12:31:21 10° S
STARLINK-27 3.7 12:27:14 59° S 12:27:48 69° SE 12:31:48 10° NE
STARLINK-66 3.4 12:29:08 67° ENE 12:29:08 67° ENE 12:32:21 10° NE
STARLINK-74 3.7 12:28:48 58° SSW 12:29:25 71° SE 12:33:26 10° NE
SEDSat Delta rocket 4.3 12:27:33 34° SW 12:29:32 46° S 12:34:48 10° ESE
Cosmos 1626 4.4 12:32:47 14° SSW 12:32:47 14° SSW 12:33:26 10° S
STARLINK-39 3.6 12:30:25 58° SSW 12:31:05 75° SE 12:35:06 10° NE
STARLINK 3.5 12:32:02 57° SSW 12:32:45 78° SE 12:36:46 10° NE
SKYMED 2 3.4 12:28:44 10° SSE 12:33:04 88° WSW 12:35:22 28° NNW
STARLINK-55 3.3 12:33:31 72° NNE 12:33:31 72° NNE 12:36:49 10° NE
Cosmos 2360 4.1 12:29:25 19° SW 12:33:34 65° WNW 12:39:16 10° NNE
STARLINK-69 3.4 12:34:00 64° SW 12:34:34 88° SE 12:38:37 10° NE
STARLINK-42 3.2 12:35:09 78° SW 12:35:23 89° NW 12:39:11 10° NE
STARLINK-21 3.5 12:35:15 55° SW 12:36:03 84° SE 12:40:06 10° NE
Cosmos 2227 Rocket 2.7 12:36:48 36° WSW 12:36:48 36° WSW 12:41:36 10° S
STARLINK-64 3.2 12:36:40 71° SW 12:37:03 89° NW 12:40:53 10° NE
STARLINK-45 3.4 12:37:19 61° WSW 12:37:57 84° NW 12:42:00 10° NE
SL-4 R/B 3.5 12:37:33 20° N 12:38:16 21° NNE 12:41:01 10° ENE
BREEZE-M DEB (TANK) 3.7 12:38:17 28° NNW 12:38:48 29° N 12:45:30 10° NE
STARLINK-70 3.4 12:38:41 56° SW 12:39:29 85° NW 12:43:32 10° NE
STARLINK-28 3.2 12:40:56 62° NNW 12:40:56 62° NNW 12:44:13 10° NE
STARLINK-76 3.4 12:40:02 50° SW 12:41:02 87° NW 12:45:04 10° NE
Cosmos 2341 Rocket 4.3 12:35:10 10° N 12:41:26 68° E 12:47:35 10° SSE
Cosmos 2263 Rocket 4.0 12:37:36 10° N 12:42:27 29° ENE 12:47:17 10° ESE
STARLINK 3.4 12:41:38 48° SW 12:42:41 84° NW 12:46:43 10° NE
Cosmos 1758 Rocket 3.8 12:39:29 10° N 12:43:52 70° E 12:48:16 10° SSE
NOAA 6 4.4 12:39:03 10° NNE 12:44:13 67° ESE 12:49:22 10° S
STARLINK-32 3.4 12:43:14 46° WSW 12:44:21 81° NW 12:48:23 10° NE
STARLINK-40 3.4 12:44:50 44° WSW 12:46:00 79° NW 12:50:03 10° NE
Nadezhda 1 Rocket 4.1 12:41:32 10° SSW 12:47:18 44° WNW 12:53:05 10° N
Okean O Rocket 1.9 12:43:04 10° NNE 12:47:31 69° ESE 12:51:54 10° S
STARLINK-44 3.4 12:46:25 42° WSW 12:47:39 76° NW 12:51:41 10° NE
USA 116 4.3 12:42:51 10° SSE 12:47:50 77° ENE 12:52:18 10° N
STARLINK-37 3.4 12:48:13 43° WSW 12:49:24 69° NW 12:53:26 10° NE
Cosmos 2278 4.0 12:47:37 23° WSW 12:50:43 42° WNW 12:56:08 10° N
STARLINK-36 3.4 12:49:36 39° WSW 12:50:58 71° NW 12:55:00 10° NE
STARLINK-68 3.5 12:51:36 40° WSW 12:52:49 62° NW 12:56:49 10° NE
Cosmos 1726 2.1 12:49:56 10° S 12:53:36 82° E 12:57:16 10° N
STARLINK-63 3.5 12:52:59 37° WSW 12:54:22 63° NW 12:58:22 10° NE
STARLINK-35 3.5 12:54:22 34° WSW 12:55:55 64° NW 12:59:55 10° NE
Cosmos 1908 4.4 12:52:34 10° SSE 12:56:18 45° E 13:00:03 10° NNE
STARLINK-61 4.1 12:56:51 35° NW 12:57:22 36° NW 13:01:04 10° NE
METEOR-M 4.1 12:52:10 10° N 12:57:24 56° WNW 13:02:37 10° SSW
STARLINK-51 3.5 12:55:58 33° WSW 12:57:34 61° NW 13:01:34 10° NE
STARLINK-30 3.5 12:57:34 32° WSW 12:59:15 59° NW 13:03:14 10° NE
STARLINK-72 3.6 12:59:10 30° WSW 13:00:53 57° NW 13:04:52 10° NE
Meteor 2-17 Rocket 4.4 12:56:31 10° NNW 13:02:31 61° W 13:08:26 10° S
STARLINK-50 3.6 13:00:46 29° WSW 13:02:33 55° NW 13:06:31 10° NE
CZ-3 R/B 3.0 12:49:26 16° W 13:03:04 47° SSW 13:08:40 10° ESE
Cosmos 2058 Rocket 3.8 12:59:38 10° S 13:03:57 56° E 13:08:15 10° NNE
SL-16 R/B 3.1 12:58:34 10° S 13:04:01 52° ESE 13:09:32 10° NNE
STARLINK-59 3.7 13:02:34 29° W 13:04:19 51° NW 13:08:16 10° NE
STARLINK-56 3.7 13:03:56 27° WSW 13:05:53 52° NW 13:09:49 10° NE
Cosmos 1703 4.1 13:03:22 10° N 13:07:14 52° E 13:11:04 10° SSE
Starlink (trailer) 3.7 13:05:33 26° WSW 13:07:33 50° NW 13:11:29 10° NE
NOSS 3-4 (A) 3.4 13:02:38 10° SSW 13:08:35 85° ESE 13:14:49 10° NE
NOSS 3-4 (C) 3.4 13:02:44 10° SSW 13:08:41 84° ESE 13:14:55 10° NE
STARLINK-38 3.8 13:07:08 25° W 13:09:11 48° NW 13:13:06 10° NE
STARLINK-75 3.9 13:08:05 27° W 13:09:36 40° NW 13:13:16 10° NE
Cosmos 1825 Rocket 3.4 13:05:27 10° NNW 13:09:45 67° W 13:14:03 10° S
STARLINK-65 3.8 13:08:43 24° W 13:10:50 47° NW 13:14:45 10° NE
ATLAS 3B R/B 4.0 13:04:44 10° NNW 13:10:51 35° NE 13:17:05 10° ESE
Cosmos 1953 3.1 13:07:40 10° SW 13:11:14 30° WNW 13:14:51 10° NNW
STARLINK-53 3.9 13:10:28 23° W 13:12:35 44° NW 13:16:27 10° NE
Meteor 1-16 Rocket 4.3 13:07:39 10° SSW 13:13:33 70° W 13:19:26 10° N
USA 215 3.3 13:07:05 10° SE 13:13:35 72° SW 13:19:33 13° NW
Cosmos 2218 Rocket 4.3 13:08:44 10° N 13:15:09 76° E 13:21:28 10° S
PAYLOAD B 4.4 13:11:30 10° N 13:16:54 50° WNW 13:22:16 10° SW
COSMOS 2455 3.2 13:12:13 10° SW 13:17:52 42° NW 13:23:34 10° NNE
CZ-4B R/B 3.2 13:12:32 10° N 13:18:02 66° WNW 13:23:24 10° SSW
Meteor 2-10 4.1 13:12:44 10° SSW 13:18:16 63° W 13:23:40 10° N
STARLINK-41 4.0 13:16:37 20° W 13:18:48 39° NW 13:22:26 10° NE
NOSS 3-2 (A) 4.1 13:13:21 10° NW 13:21:08 79° WSW 13:29:40 10° SSE
COSMO-SKYMED 1 3.7 13:17:47 10° SSW 13:21:19 24° W 13:24:00 14° NW
NOSS 2 (A) 3.8 13:20:14 26° NW 13:21:21 66° WSW 13:23:43 10° SSE
Cosmos 1980 Rocket 2.9 13:16:39 10° WSW 13:21:42 32° WNW 13:26:46 10° N
Cosmos 1606 Rocket 4.0 13:20:26 10° SSW 13:24:36 39° WNW 13:28:47 10° N
Cosmos 44 Rocket 3.9 13:21:51 16° NW 13:25:11 36° WSW 13:29:33 10° S
FENGYUN 3A 4.3 13:20:37 10° N 13:25:20 32° WNW 13:30:03 10° SW
STARLINK-58 4.2 13:23:08 16° W 13:25:50 35° NW 13:29:34 10° NNE
STARLINK 4.1 13:23:54 16° W 13:26:34 36° NW 13:30:10 10° NNE
SMAP 3.4 13:21:57 10° NNE 13:26:37 73° ESE 13:31:15 10° S
Cosmos 1726 Rocket 3.8 13:22:41 10° SSW 13:26:58 47° W 13:31:16 10° N
STARLINK-62 4.3 13:24:50 16° W 13:27:33 33° NNW 13:31:15 10° NNE
Cosmos 1697 Rocket 4.2 13:28:52 14° WNW 13:30:27 15° NW 13:33:43 10° NNW
RESURS DK-1 4.3 13:27:50 10° S 13:31:33 34° ESE 13:35:20 10° NE
ADEOS Rocket 2.7 13:29:46 10° SSE 13:35:16 84° WSW 13:40:51 10° NNW
CENTAUR R/B 3.5 13:28:10 10° NNW 13:36:25 74° ENE 13:45:11 10° SE
Cosmos 923 Rocket 4.4 13:32:12 10° SW 13:37:08 41° WNW 13:42:08 10° N
STARLINK 1044 3.7 13:35:11 10° SW 13:38:44 63° SE 13:42:18 10° NE
BREEZE M DEB (TANK) 4.1 13:38:23 13° WNW 13:40:26 25° N 13:45:00 10° NE
Lacrosse 5 2.4 13:36:14 10° SSW 13:41:15 66° SE 13:46:17 10° NE
Abrixas rocket 3.9 13:39:12 10° NNW 13:41:38 21° NNE 13:44:03 10° ENE
ATLAS 2A CENTAUR R/B 4.1 13:38:13 10° SSW 13:42:07 27° SSE 13:52:44 10° E
Cosmos 1959 Rocket 4.5 13:36:09 10° NNW 13:42:13 67° W 13:48:17 10° S
ATLAS 2AS CENTAUR R/B 3.3 13:35:59 10° SW 13:43:40 51° NW 13:51:26 10° NNE
Gbstr 26 Del rocket 4.4 13:37:54 10° SW 13:45:01 82° NW 13:53:08 10° NE
STARLINK 1040 2.5 13:42:59 10° SW 13:45:50 79° NW 13:48:41 10° NE
Cosmos 2227 4.2 13:41:03 10° NNW 13:46:38 64° WSW 13:52:10 10° S
BREEZE-M DEB (TANK) 3.9 13:48:07 10° WSW 13:48:45 11° SW 13:49:23 10° SW
STARLINK-46 3.8 13:47:21 10° W 13:48:45 17° SW 13:50:14 10° S
Cosmos 2366 rocket 4.1 13:46:06 10° NNW 13:52:18 58° W 13:58:30 10° S
AQUARIUS 4.2 13:48:28 10° N 13:52:55 63° WNW 13:57:21 10° SSW
Milstar 3 Cent rocket 4.3 13:43:19 10° WSW 13:53:57 38° S 13:59:46 10° ESE
NOAA 12 4.2 13:50:49 10° NNE 13:56:08 85° E 14:01:27 10° SSW
USA 238 DEB 4.4 13:50:08 10° NW 13:56:53 42° WSW 14:03:45 10° S
USA 238 4.4 13:50:15 10° NW 13:56:59 42° WSW 14:03:53 10° S
